STARLINK-33647 (63411 NORAD) Tracking and Keplerian Element Data

This shows tracking and keplerian element data for the satellite.

Feedback or suggestion? Click here.




ElementValue
Catalog63411
NameSTARLINK-33647
Epoch Orbit4056
Epoch Day353.98545768
Epoch Year2025
RAAN204.7005
Inclination43.002
Eccentricity0.0001865
Argument of Perigee281.3573
Mean Anonmoly78.7069
Mean Motion15.27593693
Decay Rate0.00014075
L11 63411U 25065N 25353.98545768 .00014075 00000+0 51981-3 0 9996
L22 63411 43.0020 204.7005 0001865 281.3573 78.7069 15.27593693 40565



Live tracking and technical data element details for STARLINK-33647 (NORAD 63411). STARLINK-33647 can be tracked NOW for your location showing map with azimuth and elevation plus other details from your city location.







IsCatalogInMostPopularTable: catalog: 63411, numindb: 2
Update: records affected: 1



GetName: 63411 STARLINK-33647

Hit Count: updated at: Wed, 11 Feb 2026 15:28:41 GMT